EW2961 Weather Reports


time (UTC)temp
C
wind
direction
speed
KPH
gust
KPH
rain 1hr
cm
rain 24hr
cm
rain mn
cm
humidity
%
barometer
mb
20260906193003 41 256 4.8 20.9 0.00 0.00 0.00 33 1011.2
20260906191503 41 226 1.6 9.7 0.00 0.00 0.00 32 1011.5
20260906190218 41 236 1.6 12.9 0.00 0.00 0.00 33 1011.6
20260906184503 41 171 1.6 9.7 0.00 0.00 0.00 34 1012.0
20260906183003 40 195 1.6 9.7 0.00 0.00 0.00 36 1012.2
20260906181503 40 255 3.2 11.3 0.00 0.00 0.00 35 1012.4
20260906180218 40 258 1.6 9.7 0.00 0.00 0.00 35 1012.7
20260906174503 40 225 1.6 4.8 0.00 0.00 0.00 38 1013.1
20260906173003 39 231 1.6 9.7 0.00 0.00 0.00 38 1013.2
20260906171503 38 316 1.6 6.4 0.00 0.00 0.00 39 1013.5
20260906170003 38 269 1.6 6.4 0.00 0.00 0.00 39 1013.7
20260906164503 37 234 0.0 6.4 0.00 0.00 0.00 41 1013.9
20260906163003 36 238 0.0 3.2 0.00 0.00 0.00 45 1013.9
20260906161503 36 241 0.0 8.0 0.00 0.00 0.00 44 1013.9
20260906160003 36 246 0.0 6.4 0.00 0.00 0.00 48 1014.0
20260906154503 36 298 1.6 6.4 0.00 0.00 0.00 49 1014.0
20260906153003 34 333 1.6 4.8 0.00 0.00 0.00 55 1014.0
20260906151717 33 333 0.0 3.2 0.00 0.00 0.00 56 1013.9
20260906150003 32 333 0.0 1.6 0.00 0.00 0.00 59 1013.8
20260906144503 31 0 0.0 0.0 0.00 0.00 0.00 62 1013.7
20260906143003 31 0 0.0 0.0 0.00 0.00 0.00 64 1013.7
20260906141503 30 0 0.0 0.0 0.00 0.00 0.00 69 1013.7
20260906140218 28 0 0.0 0.0 0.00 0.00 0.00 70 1013.6
20260906134717 27 0 0.0 0.0 0.00 0.00 0.00 75 1013.4
20260906133003 26 0 0.0 0.0 0.00 0.00 0.00 79 1013.5
20260906131503 25 0 0.0 0.0 0.00 0.00 0.00 84 1013.4
20260906130004 24 0 0.0 0.0 0.00 0.00 0.00 87 1013.4
20260906124503 23 0 0.0 0.0 0.00 0.00 0.00 85 1013.3
20260906123004 23 0 0.0 0.0 0.00 0.00 0.00 83 1013.1
20260906121503 23 0 0.0 0.0 0.00 0.00 0.00 83 1013.0
20260906120003 24 0 0.0 0.0 0.00 0.00 0.00 82 1012.8
20260906114504 24 0 0.0 0.0 0.00 0.00 0.00 81 1012.7
20260906113003 24 0 0.0 0.0 0.00 0.00 0.00 81 1012.6
20260906111503 24 0 0.0 0.0 0.00 0.00 0.00 81 1012.4
20260906110003 24 0 0.0 0.0 0.00 0.00 0.00 81 1012.2
20260906104503 25 0 0.0 0.0 0.00 0.00 0.00 81 1012.2
20260906103003 25 0 0.0 0.0 0.00 0.00 0.00 81 1012.2
20260906101503 25 0 0.0 0.0 0.00 0.00 0.00 80 1012.2
20260906100218 25 0 0.0 0.0 0.00 0.00 0.00 80 1012.2
20260906094504 25 0 0.0 0.0 0.00 0.00 0.00 80 1012.2
20260906093004 25 0 0.0 0.0 0.00 0.00 0.00 80 1012.1
20260906091504 25 0 0.0 0.0 0.00 0.00 0.00 80 1012.1
20260906090003 25 0 0.0 0.0 0.00 0.00 0.00 78 1011.9
20260906084503 25 0 0.0 0.0 0.00 0.00 0.00 78 1011.9
20260906083218 26 0 0.0 0.0 0.00 0.00 0.00 76 1011.8
20260906081503 26 0 0.0 0.0 0.00 0.00 0.00 76 1011.6
20260906080003 26 0 0.0 0.0 0.00 0.00 0.00 75 1011.6
20260906074503 26 0 0.0 0.0 0.00 0.00 0.00 74 1011.5
20260906073218 26 0 0.0 0.0 0.00 0.00 0.00 74 1011.4
20260906071503 26 0 0.0 0.0 0.00 0.00 0.00 73 1011.6
20260906070004 26 0 0.0 0.0 0.00 0.00 0.00 73 1011.7
20260906064503 27 0 0.0 0.0 0.00 0.00 0.00 72 1011.7
20260906063003 27 0 0.0 0.0 0.00 0.00 0.00 71 1011.7
20260906061718 27 0 0.0 0.0 0.00 0.00 0.00 70 1011.7
20260906060003 27 0 0.0 0.0 0.00 0.00 0.00 69 1011.8
20260906054503 27 0 0.0 0.0 0.00 0.00 0.00 68 1011.8
20260906053004 27 0 0.0 0.0 0.00 0.00 0.00 67 1011.6
20260906051718 28 0 0.0 0.0 0.00 0.00 0.00 67 1011.5
20260906050003 28 0 0.0 0.0 0.00 0.00 0.00 67 1011.5
20260906044503 28 0 0.0 0.0 0.00 0.00 0.00 65 1011.6
20260906043003 28 0 0.0 0.0 0.00 0.00 0.00 64 1011.4
20260906041503 29 0 0.0 0.0 0.00 0.00 0.00 62 1011.5
20260906040004 29 0 0.0 0.0 0.00 0.00 0.00 60 1011.5
20260906034503 30 0 0.0 0.0 0.00 0.00 0.00 60 1011.4
20260906033218 30 0 0.0 0.0 0.00 0.00 0.00 60 1011.3
20260906031503 30 0 0.0 0.0 0.00 0.00 0.00 59 1011.4
20260906030218 30 0 0.0 0.0 0.00 0.00 0.00 57 1011.4
20260906024503 31 0 0.0 0.0 0.00 0.00 0.00 55 1011.2
20260906023003 31 0 0.0 0.0 0.00 0.00 0.00 53 1011.0
20260906021503 32 0 0.0 0.0 0.00 0.00 0.00 52 1010.7
20260906020003 32 0 0.0 0.0 0.00 0.00 0.00 50 1010.6
20260906014503 33 0 0.0 0.0 0.00 0.00 0.00 47 1010.5
20260906013003 34 0 0.0 0.0 0.00 0.00 0.00 45 1010.4
20260906011503 35 0 0.0 0.0 0.00 0.00 0.00 42 1010.3
20260906010003 36 0 0.0 0.0 0.00 0.00 0.00 41 1010.1
20260906004503 37 205 0.0 1.6 0.00 0.00 0.00 38 1010.1
20260906003003 38 0 0.0 0.0 0.00 0.00 0.00 36 1010.1
20260906001503 38 147 0.0 3.2 0.00 0.00 0.00 34 1010.0
20260906000003 40 147 0.0 1.6 0.00 0.00 0.00 33 1010.0
20260905234718 40 147 1.6 4.8 0.00 0.00 0.00 32 1010.0
20260905233003 40 147 1.6 6.4 0.00 0.00 0.00 31 1009.8
20260905231504 41 148 1.6 8.0 0.00 0.00 0.00 31 1009.8
20260905230004 41 149 1.6 8.0 0.00 0.00 0.00 30 1009.7
20260905224503 41 150 1.6 8.0 0.00 0.00 0.00 30 1009.8
20260905223004 41 104 1.6 9.7 0.00 0.00 0.00 29 1009.9
20260905221503 41 115 3.2 11.3 0.00 0.00 0.00 31 1010.0
20260905220003 41 82 3.2 11.3 0.00 0.00 0.00 31 1010.1
20260905214503 41 136 1.6 12.9 0.00 0.00 0.00 31 1010.2
20260905213218 41 123 1.6 4.8 0.00 0.00 0.00 32 1010.3
20260905211503 41 250 1.6 8.0 0.00 0.00 0.00 31 1010.6
20260905210004 41 148 3.2 11.3 0.00 0.00 0.00 32 1010.8
20260905204503 40 94 1.6 6.4 0.00 0.00 0.00 37 1011.1
20260905203003 40 94 1.6 6.4 0.00 0.00 0.00 34 1011.3
20260905201504 42 161 3.2 9.7 0.00 0.00 0.00 32 1011.5
20260905200003 40 234 3.2 12.9 0.00 0.00 0.00 35 1011.8
20260905194503 42 165 3.2 8.0 0.00 0.00 0.00 33 1012.1